1519027200.42,50761,11.56,73206.8,-0.35,-35.13,-36.49,0,*6F
1519027201.66,50762,11.56,73206.3,-0.37,-28.47,-37.69,0,*60
1519027202.91,50763,11.56,73204.5,-0.37,-29.01,-38.67,0,*63
1519027204.11,50764,11.56,73208.8,-0.37,-27.55,-38.43,0,*6D
1519027205.36,50765,11.56,73204.8,-0.37,-31.61,-39.53,0,*6C
1519027206.64,50766,11.56,73210.8,-0.39,-35.23,-37.63,0,*6E
1519027207.9,50767,11.56,73210.5,-0.39,-34.83,-37.27,0,*64
1519027209.13,50768,11.56,73208.5,-0.37,-35.89,-38.23,0,*65
1519027210.38,50769,11.56,73206.3,-0.39,-35.95,-38.61,0,*61
1519027211.65,50770,11.56,73204.3,-0.39,-35.35,-37.69,0,*64
1519027212.91,50771,11.56,73204.0,-0.39,-34.47,-37.69,0,*61
1519027214.14,50772,11.56,73204.0,-0.39,-35.17,-37.87,0,*66
1519027215.36,50773,11.56,73204.5,-0.39,-35.71,-38.05,0,*62
1519027216.61,50774,11.56,73204.0,-0.39,-35.89,-37.99,0,*68
1519027217.84,50775,11.56,73206.0,-0.39,-36.01,-38.17,0,*63
1519027219.09,50776,11.56,73208.0,-0.39,-36.13,-38.43,0,*62
1519027220.37,50777,11.63,73208.8,-0.39,-36.37,-38.67,0,*63
1519027221.59,50778,11.63,73206.8,-0.39,-35.89,-38.17,0,*6D
1519027222.82,50779,11.56,73206.3,-0.39,-35.71,-37.87,0,*6D
1519027224.05,50780,11.63,73208.0,-0.37,-36.31,-38.67,0,*63
1519027225.24,50781,11.63,73206.3,-0.37,-37.15,-39.35,0,*63
1519027226.49,50782,11.63,73206.5,-0.39,-37.45,-39.59,0,*61
1519027227.71,50783,11.63,73208.5,-0.43,-37.33,-39.47,0,*63
1519027228.96,50784,11.63,73204.3,-0.43,-36.25,-38.35,0,*66
1519027230.22,50785,11.63,73208.8,-0.43,-36.37,-38.35,0,*64
1519027231.47,50786,11.63,73210.8,-0.39,-36.85,-38.79,0,*6B
1519027232.73,50787,11.63,73210.0,-0.39,-35.59,-37.63,0,*6C
1519027233.98,50788,11.63,73206.5,-0.43,-34.13,-37.51,0,*60
1519027235.26,50789,11.63,73208.3,-0.43,-30.01,-40.09,0,*6B
1519027236.51,50790,11.63,73206.5,-0.43,-33.77,-41.61,0,*6E
1519027237.79,50791,11.63,73208.3,-0.47,-33.49,-41.55,0,*61
1519027239.03,50792,11.63,73210.3,-0.51,-31.01,-40.79,0,*64
1519027240.31,50793,11.63,73208.5,-0.55,-31.39,-40.41,0,*61
1519027241.51,50794,11.63,73210.0,-0.53,-36.19,-39.65,0,*6D
1519027242.76,50795,11.63,73204.3,-0.53,-37.09,-38.11,0,*6E
1519027243.98,50796,11.63,73208.8,-0.53,-37.51,-38.05,0,*65
1519027245.27,50797,11.63,73210.8,-0.51,-37.21,-37.51,0,*6F
1519027246.53,50798,11.63,73210.8,-0.49,-37.21,-37.81,0,*64
1519027247.79,50799,11.63,73206.5,-0.49,-37.51,-37.99,0,*6B
1519027249.02,50800,11.63,73208.0,-0.45,-37.21,-37.75,0,*6D
1519027250.3,50801,11.63,73208.0,-0.47,-37.39,-37.93,0,*6F
1519027251.55,50802,11.63,73210.0,-0.47,-37.57,-37.99,0,*6E
1519027252.8,50803,11.63,73208.8,-0.47,-37.21,-37.75,0,*6C
1519027254.03,50804,11.69,73212.3,-0.45,-37.63,-38.17,0,*64
1519027255.29,50805,11.63,73208.5,-0.45,-37.93,-38.29,0,*67
1519027256.52,50806,11.63,73210.3,-0.45,-37.21,-37.75,0,*6B
1519027257.75,50807,11.63,73204.5,-0.45,-37.21,-37.75,0,*6A
1519027259.0,50808,11.63,73206.3,-0.43,-37.09,-37.57,0,*69
1519027260.25,50809,11.63,73210.3,-0.39,-37.09,-37.45,0,*66
1519027261.49,50810,11.69,73208.8,-0.39,-36.85,-37.15,0,*6E
1519027262.71,50811,11.69,73208.3,-0.39,-36.85,-37.33,0,*6B
1519027263.94,50812,11.69,73210.8,-0.37,-37.03,-37.51,0,*6D
1519027265.14,50813,11.69,73208.0,-0.37,-36.85,-37.33,0,*67
1519027266.4,50814,11.69,73210.3,-0.35,-36.49,-36.97,0,*6D
1519027267.65,50815,11.69,73210.5,-0.33,-36.79,-37.21,0,*65
1519027268.88,50816,11.69,73208.5,-0.31,-36.55,-36.97,0,*66
1519027270.15,50817,11.69,73208.0,-0.31,-36.37,-36.91,0,*65
1519027271.41,50818,11.69,73210.8,-0.31,-36.37,-36.73,0,*66
1519027272.66,50819,11.69,73208.5,-0.31,-36.55,-36.91,0,*6F
1519027273.91,50820,11.69,73206.3,-0.27,-36.49,-36.85,0,*6A
1519027275.19,50821,11.69,73206.5,-0.27,-37.09,-37.63,0,*67
1519027276.45,50822,11.69,73208.8,-0.25,-37.81,-38.23,0,*6D
1519027277.69,50823,11.69,73210.5,-0.25,-36.85,-37.39,0,*6D
1519027278.92,50824,11.69,73214.3,-0.25,-36.85,-37.39,0,*6A
1519027280.15,50825,11.69,73208.8,-0.25,-36.91,-37.45,0,*65
1519027281.43,50826,11.69,73210.5,-0.23,-37.09,-37.63,0,*64
1519027282.7,50827,11.69,73210.3,-0.23,-36.49,-36.91,0,*6C
1519027283.95,50828,11.69,73208.0,-0.23,-36.49,-37.03,0,*69
1519027285.18,50829,11.69,73210.5,-0.17,-36.43,-36.85,0,*6A
1519027286.38,50830,11.69,73208.3,-0.21,-36.55,-36.97,0,*63
1519027287.61,50831,11.69,73208.0,-0.17,-36.55,-36.97,0,*67
1519027288.84,50832,11.69,73208.5,-0.17,-36.55,-37.03,0,*68
1519027290.08,50833,11.69,73208.3,-0.15,-36.97,-37.63,0,*63
1519027291.37,50834,11.69,73210.0,-0.13,-37.81,-38.49,0,*63
1519027292.6,50835,11.69,73206.3,-0.13,-36.73,-37.27,0,*69
1519027293.83,50836,11.69,73210.8,-0.13,-36.55,-36.97,0,*64
1519027295.1,50837,11.69,73210.3,-0.13,-36.37,-36.91,0,*67
1519027296.35,50838,11.69,73204.8,-0.11,-36.49,-37.09,0,*63
1519027297.6,50839,11.69,73204.8,-0.09,-36.43,-36.91,0,*51
1519027298.85,50840,11.75,73208.0,-0.09,-36.31,-36.91,0,*5A
1519027300.1,50841,11.75,73208.0,-0.09,-36.43,-36.91,0,*5E
1519027301.35,50842,11.75,73212.5,-0.09,-36.43,-36.91,0,*5D
1519027302.54,50843,11.75,73208.8,-0.07,-36.43,-37.03,0,*58
1519027303.74,50844,11.75,73208.3,-0.07,-36.73,-37.33,0,*5F
1519027304.97,50845,11.75,73208.5,-0.05,-38.67,-39.47,0,*5A
1519027306.18,50846,11.75,73208.3,-0.07,-39.09,-39.91,0,*59
1519027307.42,50847,11.75,73210.5,-0.07,-38.91,-39.71,0,*56
1519027308.7,50848,11.75,73210.5,-0.09,-39.23,-40.09,0,*5E
1519027309.95,50849,11.75,73210.5,-0.11,-38.23,-38.91,0,*69
1519027311.17,50850,11.75,73210.8,-0.09,-37.03,-37.57,0,*50
1519027312.42,50851,11.75,73210.0,-0.11,-36.49,-37.21,0,*66
1519027313.68,50852,11.75,73208.3,-0.09,-36.73,-37.21,0,*55
1519027314.88,50853,11.75,73208.8,-0.07,-36.55,-37.15,0,*59
1519027316.11,50854,11.75,73208.8,-0.05,-36.79,-37.45,0,*57
1519027317.33,50855,11.75,73208.3,-0.03,-36.49,-37.15,0,*56
1519027318.58,50856,11.75,73212.5,-0.03,-36.49,-37.09,0,*58
1519027319.82,50857,11.75,73208.5,-0.03,-37.63,-38.11,0,*56
1519027321.01,50858,11.75,73208.8,-0.03,-37.33,-38.05,0,*59
1519027322.22,50859,11.75,73210.3,-0.03,-36.79,-37.27,0,*58
1519027323.44,50860,11.75,73210.3,-0.03,-36.31,-36.79,0,*54
1519027324.68,50861,11.75,73210.3,-0.01,-36.91,-37.57,0,*50
1519027325.92,50862,11.75,73212.5,-0.01,-37.03,-37.69,0,*54
1519027327.17,50863,11.75,73208.3,0.01,-37.09,-37.63,0,*78
1519027328.38,50864,11.81,73214.0,0.01,-37.45,-37.99,0,*72
1519027329.57,50865,11.75,73208.0,0.01,-37.57,-38.17,0,*79
1519027330.76,50866,11.81,73212.0,0.05,-37.75,-38.35,0,*7E
1519027331.94,50867,11.81,73210.5,0.01,-38.05,-38.73,0,*71
1519027333.15,50868,11.75,73206.8,0.01,-37.99,-38.43,0,*77
1519027334.37,50869,11.81,73212.5,0.01,-37.81,-38.61,0,*7F
1519027335.57,50870,11.75,73210.5,0.01,-37.87,-38.55,0,*76
1519027336.78,50871,11.81,73210.3,0.01,-37.39,-38.05,0,*77
1519027337.96,50872,11.81,73210.5,0.05,-37.57,-38.17,0,*7B
1519027339.2,50873,11.81,73212.0,0.01,-38.23,-38.91,0,*7C
1519027340.41,50874,11.81,73212.3,0.05,-38.55,-39.23,0,*76
1519027341.68,50875,11.81,73214.5,-0.01,-39.15,-39.97,0,*54
1519027342.94,50876,11.81,73212.8,-0.03,-39.79,-40.59,0,*53
1519027344.14,50877,11.81,73210.0,-0.03,-39.85,-40.65,0,*5E
1519027345.39,50878,11.81,73208.3,-0.03,-39.59,-40.41,0,*56
1519027346.64,50879,11.81,73208.0,-0.07,-38.29,-38.91,0,*57
1519027347.87,50880,11.81,73208.5,-0.07,-37.63,-38.35,0,*5E
1519027349.11,50881,11.81,73210.5,-0.07,-37.51,-37.99,0,*57
1519027350.31,50882,11.81,73214.8,-0.07,-37.75,-38.35,0,*5B
1519027351.56,50883,11.81,73214.5,-0.05,-38.29,-38.97,0,*56
1519027352.78,50884,11.81,73210.0,-0.07,-38.11,-38.85,0,*5B
1519027354.02,50885,11.81,73208.5,-0.05,-37.45,-37.93,0,*5E
1519027355.29,50886,11.81,73208.8,-0.05,-37.93,-38.49,0,*5E
1519027356.56,50887,11.81,73208.0,-0.05,-37.51,-38.11,0,*5C
1519027357.83,50888,11.81,73208.3,-0.05,-38.11,-38.79,0,*56
1519027359.07,50889,11.81,73210.0,-0.05,-39.23,-40.03,0,*55
1519027360.32,50890,11.81,73210.3,-0.05,-39.09,-39.97,0,*56
1519027361.58,50891,11.81,73208.3,-0.05,-39.29,-39.97,0,*55
1519027362.78,50892,11.81,73208.8,-0.07,-37.75,-38.35,0,*5A
1519027364.03,50893,11.81,73208.5,-0.07,-37.21,-37.69,0,*5C
1519027365.23,50894,11.81,73210.0,-0.03,-36.55,-37.15,0,*56
1519027366.47,50895,11.81,73208.5,-0.03,-36.49,-37.09,0,*57
1519027367.72,50896,11.81,73210.5,-0.01,-36.85,-37.39,0,*55
1519027368.97,50897,11.81,73208.5,-0.01,-36.73,-37.21,0,*54
1519027370.22,50898,11.81,73208.3,-0.01,-36.85,-37.39,0,*5B
1519027371.44,50899,11.88,73212.0,-0.01,-36.73,-37.45,0,*58
1519027372.65,50900,11.81,73208.3,0.01,-36.91,-37.45,0,*78
1519027373.84,50901,11.88,73214.0,0.01,-36.73,-37.27,0,*71
1519027375.06,50902,11.88,73210.5,0.05,-37.15,-37.63,0,*77
1519027376.27,50903,11.88,73212.0,0.07,-36.55,-36.97,0,*7B
1519027377.52,50904,11.88,73212.8,0.07,-36.55,-37.09,0,*7A
1519027378.73,50905,11.88,73208.8,0.09,-36.79,-37.33,0,*72
1519027379.94,50906,11.88,73208.8,0.09,-36.79,-37.15,0,*75
1519027381.15,50907,11.88,73212.5,0.09,-36.37,-36.97,0,*75
1519027382.35,50908,11.88,73208.8,0.09,-36.79,-37.45,0,*7E
1519027383.59,50909,11.88,73214.3,0.11,-36.91,-37.45,0,*40
1519027384.81,50910,11.88,73212.3,0.13,-36.31,-36.85,0,*4D
1519027386.07,50911,11.88,73214.5,0.11,-36.37,-36.91,0,*4D
1519027387.33,50912,11.88,73210.5,0.13,-36.67,-37.09,0,*49
1519027388.57,50913,11.88,73214.5,0.13,-36.25,-36.85,0,*4B
1519027389.79,50914,11.88,73212.0,0.17,-36.31,-36.85,0,*4D
1519027390.99,50915,11.88,73212.8,0.15,-36.07,-36.67,0,*47
1519027392.21,50916,11.88,73212.5,0.17,-36.19,-36.67,0,*49
1519027393.43,50917,11.88,73210.3,0.19,-36.25,-36.97,0,*46
1519027394.63,50918,11.88,73212.3,0.19,-36.55,-36.97,0,*4E
1519027395.9,50919,11.88,73212.5,0.21,-36.25,-36.79,0,*43
1519027397.1,50920,11.88,73210.5,0.23,-36.43,-37.15,0,*40
1519027398.3,50921,11.88,73210.8,0.23,-36.31,-36.73,0,*45
1519027399.52,50922,11.88,73208.8,0.23,-36.55,-37.09,0,*48
1519027400.77,50923,11.88,73212.8,0.27,-36.25,-36.79,0,*4C
1519027401.97,50924,11.88,73208.5,0.27,-36.07,-36.67,0,*44
1519027403.19,50925,11.94,73212.0,0.27,-36.07,-36.61,0,*43
1519027404.41,50926,11.88,73212.0,0.29,-35.89,-36.43,0,*4B
1519027405.66,50927,11.94,73214.0,0.33,-35.83,-36.55,0,*4C
1519027406.91,50928,11.88,73214.3,0.33,-36.25,-36.73,0,*48
1519027408.13,50929,11.94,73214.5,0.35,-36.31,-36.91,0,*46
1519027409.32,50930,11.94,73212.3,0.35,-36.31,-36.85,0,*4B
1519027410.57,50931,11.94,73218.0,0.35,-36.79,-37.09,0,*43
1519027411.82,50932,11.94,73212.3,0.35,-36.91,-37.51,0,*4B
1519027413.07,50933,11.94,73214.3,0.35,-36.91,-37.51,0,*4A
1519027414.32,50934,11.94,73214.3,0.37,-37.09,-37.87,0,*44
1519027415.56,50935,11.94,73210.5,0.37,-37.87,-38.67,0,*42
1519027416.8,50936,11.94,73214.5,0.37,-37.99,-38.61,0,*48
1519027418.04,50937,11.94,73212.0,0.37,-38.23,-38.97,0,*4E
1519027419.26,50938,11.94,73212.0,0.35,-38.05,-38.79,0,*47
1519027420.48,50939,11.94,73212.3,0.35,-37.63,-38.17,0,*41
1519027421.67,50940,11.94,73214.5,0.35,-37.45,-38.05,0,*48
1519027422.9,50941,11.94,73210.5,0.35,-37.03,-37.63,0,*44
1519027424.14,50942,11.94,73214.5,0.37,-37.69,-38.35,0,*45
1519027425.38,50943,11.94,73214.3,0.37,-37.99,-38.97,0,*43
1519027426.64,50944,11.94,73212.0,0.37,-38.67,-39.41,0,*40
1519027427.86,50945,11.94,73214.5,0.35,-38.85,-39.59,0,*46
1519027429.13,50946,11.94,73214.3,0.33,-38.23,-38.79,0,*4C
1519027430.37,50947,11.94,73210.0,0.33,-37.39,-38.05,0,*42
1519027431.61,50948,11.94,73214.5,0.33,-37.09,-37.57,0,*46
1519027432.83,50949,11.94,73212.3,0.35,-36.91,-37.45,0,*42
1519027434.03,50950,11.94,73214.5,0.35,-36.67,-37.15,0,*46
1519027435.24,50951,11.94,73210.3,0.37,-36.73,-37.33,0,*44
1519027436.49,50952,11.94,73212.8,0.39,-36.49,-37.09,0,*49
1519027437.7,50953,11.94,73214.3,0.37,-36.67,-37.27,0,*46
1519027438.89,50954,11.94,73212.8,0.39,-36.67,-37.27,0,*4F
1519027440.13,50955,11.94,73214.5,0.41,-36.61,-37.15,0,*46
1519027441.4,50956,11.94,73214.0,0.41,-36.91,-37.51,0,*4A
1519027442.66,50957,11.94,73214.5,0.41,-37.39,-38.11,0,*43
1519027443.87,50958,11.94,73214.0,0.43,-37.51,-38.05,0,*45
1519027445.1,50959,11.94,73214.8,0.43,-37.21,-37.87,0,*46
1519027446.33,50960,12.0,73216.3,0.41,-36.37,-36.97,0,*48
1519027447.57,50961,11.94,73212.0,0.43,-36.25,-36.79,0,*48
1519027448.79,50962,12.0,73212.5,0.45,-36.37,-36.97,0,*4E
1519027449.99,50963,12.0,73212.5,0.45,-36.01,-36.67,0,*45
1519027451.21,50964,12.0,73212.5,0.45,-36.13,-36.67,0,*41
1519027452.47,50965,12.0,73214.0,0.47,-35.83,-36.37,0,*4D
1519027453.74,50966,12.0,73212.0,0.51,-35.95,-36.61,0,*4D
1519027454.96,50967,12.0,73214.8,0.51,-35.89,-36.43,0,*41
1519027456.16,50968,12.0,73214.0,0.53,-35.77,-36.31,0,*48
1519027457.42,50969,12.0,73212.5,0.55,-35.83,-36.37,0,*42
1519027458.66,50970,12.0,73216.5,0.55,-36.01,-36.61,0,*40
1519027459.87,50971,12.0,73214.3,0.57,-36.37,-36.97,0,*4F
1519027461.08,50972,12.0,73212.8,0.57,-36.07,-36.61,0,*46
1519027462.27,50973,12.0,73214.0,0.57,-36.43,-36.85,0,*4D
1519027463.51,50974,12.0,73214.8,0.59,-36.67,-37.21,0,*4D
1519027464.72,50975,12.0,73218.3,0.61,-36.25,-36.85,0,*4E
1519027465.92,50976,12.0,73214.0,0.61,-37.03,-37.57,0,*46
1519027467.15,50977,12.0,73218.0,0.59,-36.79,-37.33,0,*42
1519027468.37,50978,12.0,73216.3,0.61,-36.85,-37.39,0,*4F
1519027469.61,50979,12.0,73212.3,0.61,-36.49,-37.09,0,*4D
1519027470.85,50980,12.0,73214.8,0.63,-36.25,-36.85,0,*46
1519027472.06,50981,12.0,73212.5,0.63,-36.31,-36.85,0,*42
1519027473.26,50982,12.0,73216.5,0.65,-36.97,-37.57,0,*45
1519027474.49,50983,12.0,73218.5,0.65,-36.61,-37.21,0,*4C
1519027475.71,50984,12.0,73218.0,0.63,-36.55,-37.03,0,*4A
1519027476.93,50985,12.0,73212.5,0.65,-36.55,-37.21,0,*4D
1519027478.15,50986,12.0,73218.0,0.65,-36.55,-37.21,0,*4E
1519027479.41,50987,12.0,73214.8,0.67,-36.61,-37.21,0,*4A
1519027480.68,50988,12.0,73214.0,0.67,-37.21,-38.11,0,*4C
1519027481.9,50989,12.0,73212.3,0.67,-37.57,-38.17,0,*4A
1519027483.15,50990,12.0,73212.3,0.67,-36.85,-37.51,0,*41
1519027484.37,50991,12.0,73214.8,0.69,-37.63,-38.43,0,*4B
1519027485.58,50992,12.0,73212.5,0.69,-37.63,-38.43,0,*48
1519027486.79,50993,12.0,73216.3,0.69,-37.99,-38.73,0,*4F
1519027488.04,50994,12.0,73212.0,0.67,-38.17,-38.91,0,*43
1519027489.28,50995,12.06,73216.5,0.67,-37.57,-38.29,0,*4A
1519027490.5,50996,12.0,73214.8,0.67,-36.97,-37.57,0,*42
1519027491.74,50997,12.06,73216.5,0.67,-36.37,-36.97,0,*44
1519027492.96,50998,12.06,73218.5,0.69,-36.61,-37.33,0,*49
1519027494.17,50999,12.06,73214.5,0.69,-37.27,-37.81,0,*42
1519027495.44,51000,12.06,73216.0,0.67,-38.23,-39.29,0,*43
1519027496.63,51001,12.06,73214.0,0.69,-38.85,-39.65,0,*48
1519027497.85,51002,12.06,73214.8,0.69,-38.85,-39.59,0,*44
1519027499.08,51003,12.06,73218.3,0.67,-38.67,-39.35,0,*4D
1519027500.32,51004,12.06,73218.5,0.67,-37.99,-38.73,0,*47
1519027501.59,51005,12.06,73214.0,0.67,-38.29,-39.15,0,*43
1519027502.81,51006,12.06,73214.3,0.65,-39.15,-40.03,0,*45
1519027503.99,51007,12.06,73216.5,0.65,-38.35,-39.09,0,*43
1519027505.21,51008,12.06,73216.5,0.63,-37.45,-38.17,0,*4C
1519027506.42,51009,12.06,73218.5,0.65,-36.73,-37.39,0,*4C
1519027507.66,51010,12.06,73216.5,0.65,-36.79,-37.39,0,*4E
1519027508.85,51011,12.06,73216.0,0.65,-37.15,-37.87,0,*41
1519027510.1,51012,12.06,73218.5,0.67,-36.85,-37.51,0,*43
1519027511.32,51013,12.06,73218.0,0.67,-36.85,-37.57,0,*44
1519027512.57,51014,12.06,73218.0,0.67,-36.67,-37.21,0,*4E
1519027513.81,51015,12.06,73212.8,0.69,-36.37,-36.91,0,*4E
1519027515.01,51016,12.06,73212.8,0.69,-36.79,-37.45,0,*4F
1519027516.23,51017,12.06,73216.5,0.73,-36.73,-37.21,0,*4D
1519027517.45,51018,12.06,73216.8,0.73,-37.81,-38.61,0,*45
1519027518.67,51019,12.06,73218.8,0.73,-36.91,-37.57,0,*4E
1519027519.91,51020,12.06,73218.3,0.73,-36.49,-37.21,0,*40
1519027521.13,51021,12.06,73212.3,0.77,-36.67,-37.51,0,*4E
1519027522.36,51022,12.06,73214.5,0.77,-38.05,-38.91,0,*44
1519027523.59,51023,12.06,73216.0,0.77,-37.99,-38.85,0,*4A
1519027524.77,51024,12.06,73214.8,0.73,-38.97,-39.91,0,*4C
1519027526.01,51025,12.06,73212.5,0.73,-39.03,-40.09,0,*4E
1519027527.19,51026,12.13,73216.8,0.73,-38.17,-38.97,0,*41
1519027528.4,51027,12.13,73218.0,0.73,-38.23,-38.97,0,*47
1519027529.61,51028,12.06,73216.0,0.73,-37.63,-38.43,0,*4A
1519027530.83,51029,12.13,73216.8,0.69,-37.69,-38.43,0,*4A
1519027532.05,51030,12.06,73216.0,0.69,-37.27,-37.93,0,*4A
1519027533.29,51031,12.06,73216.5,0.69,-36.91,-37.51,0,*49
1519027534.48,51032,12.06,73216.0,0.73,-36.43,-37.03,0,*49
1519027535.72,51033,12.06,73216.5,0.73,-37.09,-37.81,0,*4D
1519027536.95,51034,12.06,73212.8,0.77,-36.37,-36.97,0,*44
1519027538.17,51035,12.13,73216.8,0.77,-36.49,-37.03,0,*40
1519027539.4,51036,12.13,73214.5,0.77,-35.89,-36.49,0,*43
1519027540.63,51037,12.13,73216.5,0.81,-35.95,-36.55,0,*4B
1519027541.86,51038,12.06,73214.8,0.81,-36.19,-36.79,0,*4D
1519027543.07,51039,12.13,73216.0,0.81,-36.01,-36.55,0,*4B
1519027544.32,51040,12.13,73216.5,0.83,-36.31,-36.91,0,*4C
1519027545.55,51041,12.13,73216.3,0.83,-36.31,-36.97,0,*4B
1519027546.81,51042,12.13,73218.3,0.85,-35.95,-36.49,0,*40
1519027548.08,51043,12.13,73216.5,0.87,-35.95,-36.49,0,*43
1519027549.29,51044,12.13,73212.8,0.89,-36.07,-36.67,0,*4E
1519027550.54,51045,12.13,73216.0,0.87,-36.25,-36.85,0,*4D
1519027551.75,51046,12.13,73216.0,0.89,-36.07,-36.67,0,*4C
1519027552.95,51047,12.13,73216.0,0.93,-36.43,-37.15,0,*42
1519027554.21,51048,12.13,73218.0,0.91,-36.61,-37.15,0,*4F
1519027555.46,51049,12.13,73218.0,0.91,-36.97,-37.69,0,*4C
1519027556.69,51050,12.13,73214.5,0.93,-36.43,-37.09,0,*49
1519027557.95,51051,12.13,73216.0,0.91,-37.09,-37.75,0,*4E
1519027559.2,51052,12.13,73216.5,0.91,-36.97,-37.69,0,*46
1519027560.42,51053,12.13,73216.3,0.93,-36.79,-37.45,0,*4B
1519027561.65,51054,12.13,73218.0,0.93,-36.61,-37.27,0,*41
1519027562.87,51055,12.13,73216.8,0.97,-36.13,-36.85,0,*48
1519027564.1,51056,12.13,73218.8,0.99,-36.19,-36.73,0,*46
1519027565.32,51057,12.13,73218.5,0.99,-36.85,-37.45,0,*46
1519027566.55,51058,12.13,73218.0,0.99,-36.19,-36.85,0,*41
1519027567.78,51059,12.13,73218.3,1.01,-36.07,-36.61,0,*75
1519027569.01,51060,12.13,73216.8,1.01,-36.07,-36.61,0,*7F
1519027570.24,51061,12.13,73216.5,1.01,-36.49,-37.15,0,*76
1519027571.49,51062,12.13,73216.5,1.03,-36.01,-36.61,0,*79
1519027572.73,51063,12.13,73216.8,1.05,-36.25,-36.73,0,*7B
1519027573.96,51064,12.13,73216.0,1.05,-36.25,-36.97,0,*76
1519027575.2,51065,12.19,73220.0,1.05,-36.73,-37.51,0,*7F
1519027576.47,51066,12.19,73218.5,1.07,-35.95,-36.55,0,*70
1519027577.73,51067,12.13,73218.8,1.07,-35.95,-36.43,0,*76
1519027578.99,51068,12.19,73218.5,1.07,-36.01,-36.61,0,*77
1519027580.24,51069,12.19,73218.0,1.09,-35.89,-36.49,0,*71
1519027581.5,51070,12.19,73216.5,1.09,-35.77,-36.37,0,*71
1519027582.73,51071,12.13,73214.5,1.11,-35.65,-36.31,0,*7C
1519027583.96,51072,12.19,73222.3,1.11,-36.49,-36.97,0,*7E
1519027585.16,51073,12.19,73218.8,1.11,-36.31,-36.85,0,*73
1519027586.39,51074,12.19,73216.0,1.11,-36.25,-36.97,0,*72
1519027587.63,51075,12.13,73216.3,1.13,-36.31,-36.97,0,*74
1519027588.9,51076,12.19,73218.0,1.13,-36.13,-36.79,0,*77
1519027590.16,51077,12.19,73218.8,1.15,-36.25,-36.79,0,*75
1519027591.4,51078,12.19,73218.8,1.15,-36.19,-36.91,0,*73
1519027592.63,51079,12.19,73216.5,1.17,-36.55,-37.15,0,*75
1519027593.91,51080,12.19,73222.0,1.21,-37.09,-37.81,0,*73
1519027595.19,51081,12.19,73218.0,1.17,-37.21,-37.93,0,*7E
1519027596.48,51082,12.19,73220.8,1.17,-37.51,-38.23,0,*7E
1519027597.75,51083,12.19,73218.0,1.17,-37.39,-38.11,0,*70
1519027598.97,51084,12.19,73218.3,1.15,-37.57,-38.35,0,*7B
1519027600.25,51085,12.19,73222.8,1.17,-37.21,-37.93,0,*7A
1519027601.53,51086,12.19,73218.0,1.17,-36.91,-37.51,0,*7D
1519027602.81,51087,12.19,73216.5,1.17,-36.25,-36.91,0,*7E
1519027604.09,51088,12.19,73216.3,1.17,-36.79,-37.39,0,*7B
1519027605.38,51089,12.19,73216.5,1.17,-37.51,-38.29,0,*7F
1519027606.66,51090,12.19,73214.8,1.17,-37.39,-38.23,0,*73
1519027607.91,51091,12.19,73218.8,1.17,-37.33,-38.11,0,*79
1519027609.19,51092,12.19,73216.5,1.17,-36.37,-36.91,0,*79
1519027610.45,51093,12.19,73214.3,1.17,-37.51,-38.35,0,*79
1519027611.73,51094,12.19,73216.8,1.17,-38.49,-39.29,0,*74
1519027612.98,51095,12.19,73218.0,1.17,-38.55,-39.41,0,*76
1519027614.21,51096,12.19,73218.5,1.15,-37.33,-38.11,0,*7C
1519027615.43,51097,12.19,73218.0,1.15,-38.11,-38.73,0,*76
1519027616.69,51098,12.19,73218.0,1.15,-39.03,-39.71,0,*78
1519027617.95,51099,12.19,73218.3,1.13,-39.97,-40.73,0,*7E
1519027619.16,51100,12.19,73222.0,1.11,-40.35,-41.17,0,*78
1519027620.39,51101,12.19,73218.3,1.11,-39.97,-40.73,0,*7C
1519027621.67,51102,12.19,73216.5,1.09,-39.71,-40.21,0,*79
1519027622.9,51103,12.19,73218.8,1.05,-38.55,-39.29,0,*75
1519027624.19,51104,12.19,73220.3,1.07,-39.41,-40.09,0,*78
1519027625.42,51105,12.25,73220.3,1.05,-39.47,-40.21,0,*77
1519027626.63,51106,12.19,73218.3,1.05,-39.85,-40.65,0,*7A
1519027627.86,51107,12.19,73220.8,1.01,-39.71,-40.65,0,*74
1519027629.09,51108,12.25,73224.0,0.99,-39.35,-40.15,0,*4C
1519027630.36,51109,12.19,73220.0,0.99,-38.85,-39.59,0,*41
1519027631.59,51110,12.25,73222.0,0.99,-37.87,-38.61,0,*4E
1519027632.83,51111,12.25,73222.3,0.99,-37.87,-38.55,0,*48
1519027634.09,51112,12.25,73222.0,0.99,-36.85,-37.39,0,*4D
1519027635.35,51113,12.19,73220.0,1.01,-36.61,-37.39,0,*76
1519027636.58,51114,12.25,73218.8,1.01,-36.97,-37.63,0,*77
1519027637.81,51115,12.25,73218.0,1.05,-36.91,-37.33,0,*71
1519027639.05,51116,12.25,73220.3,1.01,-36.61,-37.15,0,*7D
1519027640.28,51117,12.25,73218.3,1.03,-36.43,-37.03,0,*79
1519027641.48,51118,12.25,73220.3,1.05,-36.43,-36.97,0,*7C
1519027642.77,51119,12.25,73216.8,1.07,-36.25,-36.91,0,*79
1519027644.05,51120,12.25,73216.8,1.07,-36.25,-36.91,0,*73
1519027645.27,51121,12.25,73218.5,1.11,-36.07,-36.67,0,*7C
1519027646.52,51122,12.25,73216.0,1.09,-36.37,-37.15,0,*71
1519027647.76,51123,12.25,73218.3,1.13,-36.31,-36.97,0,*76
1519027649.02,51124,12.25,73218.5,1.13,-36.67,-37.39,0,*77
1519027650.25,51125,12.25,73216.0,1.13,-36.31,-36.97,0,*70
1519027651.46,51126,12.25,73220.3,1.15,-36.07,-36.73,0,*7A
1519027652.7,51127,12.25,73218.8,1.17,-36.07,-36.73,0,*79
1519027653.93,51128,12.25,73218.5,1.17,-36.07,-36.73,0,*76
1519027655.18,51129,12.25,73216.5,1.17,-36.19,-36.79,0,*72
1519027656.45,51130,12.25,73216.8,1.21,-36.49,-37.09,0,*7C
1519027657.68,51131,12.25,73216.5,1.21,-36.01,-36.85,0,*74
1519027658.91,51132,12.25,73222.8,1.21,-36.01,-36.67,0,*7B
1519027660.19,51133,12.25,73220.3,1.25,-35.95,-36.61,0,*76
1519027661.47,51134,12.25,73220.8,1.25,-35.95,-36.61,0,*71
1519027662.67,51135,12.25,73214.8,1.23,-36.31,-36.97,0,*72
1519027663.9,51136,12.25,73218.8,1.27,-35.89,-36.61,0,*7C
1519027665.15,51137,12.25,73216.0,1.29,-36.07,-36.79,0,*7F
1519027666.38,51138,12.25,73220.8,1.29,-36.43,-37.15,0,*7B
1519027667.61,51139,12.25,73220.0,1.29,-36.97,-37.75,0,*75
1519027668.86,51140,12.25,73220.5,1.29,-36.61,-37.33,0,*70
1519027670.07,51141,12.25,73222.8,1.31,-37.03,-37.87,0,*72
1519027671.27,51142,12.25,73222.0,1.31,-36.67,-37.33,0,*7D
1519027672.51,51143,12.25,73220.5,1.31,-36.85,-37.51,0,*74
1519027673.76,51144,12.25,73218.3,1.33,-36.85,-37.51,0,*71
1519027675.02,51145,12.25,73220.8,1.33,-37.15,-37.99,0,*7C
1519027676.25,51146,12.25,73220.3,1.31,-37.81,-38.43,0,*78
1519027677.51,51147,12.25,73220.8,1.33,-37.45,-38.29,0,*7F
1519027678.77,51148,12.25,73222.0,1.31,-37.09,-37.81,0,*77
1519027680.05,51149,12.25,73220.0,1.33,-36.91,-37.63,0,*78
1519027681.25,51150,12.25,73222.8,1.31,-36.73,-37.45,0,*7A
1519027682.5,51151,12.25,73218.3,1.33,-36.91,-37.45,0,*75
1519027683.72,51152,12.25,73218.0,1.33,-36.55,-37.27,0,*7A
1519027684.97,51153,12.25,73220.5,1.33,-36.49,-37.27,0,*76
1519027686.19,51154,12.25,73222.0,1.33,-36.85,-37.45,0,*75
1519027687.42,51155,12.25,73220.5,1.35,-36.91,-37.57,0,*74
1519027688.67,51156,12.25,73222.3,1.35,-36.61,-37.21,0,*79
1519027689.95,51157,12.25,73218.8,1.37,-36.79,-37.39,0,*7A
1519027691.2,51158,12.25,73216.3,1.35,-37.09,-37.81,0,*72
1519027692.45,51159,12.25,73222.5,1.37,-36.85,-37.69,0,*72
1519027693.67,51160,12.25,73222.0,1.35,-36.79,-37.45,0,*77
1519027694.9,51161,12.31,73220.3,1.37,-36.55,-36.97,0,*74
1519027696.15,51162,12.25,73216.8,1.37,-36.61,-37.33,0,*7F
1519027697.35,51163,12.25,73218.5,1.39,-36.43,-36.97,0,*7F
1519027698.59,51164,12.25,73216.8,1.39,-36.25,-37.03,0,*74
1519027699.82,51165,12.31,73220.0,1.43,-36.19,-36.73,0,*71